timestamp,surface_pressure_avg,surface_temp_avg,battery_voltage,lat,long
2023-10-03 00:09:01+00:00,306.6429,13.09,11.93,47.84626,-54.09684
2023-10-03 00:19:00+00:00,316.4514,13.06,11.93,47.84626,-54.09684
2023-10-03 00:29:00+00:00,321.8497,13.0,11.93,47.84626,-54.09684
2023-10-03 00:39:00+00:00,326.3096,13.0,11.93,47.84626,-54.09684
2023-10-03 00:49:00+00:00,333.8179,13.0,11.93,47.84626,-54.09684
2023-10-03 00:59:00+00:00,342.5881,13.0,11.93,47.84626,-54.09684
2023-10-03 01:09:00+00:00,344.0547,13.0,11.93,47.84626,-54.09684
2023-10-03 01:19:00+00:00,344.5929,13.0,11.93,47.84626,-54.09684
2023-10-03 01:29:00+00:00,347.4713,13.0,11.93,47.84626,-54.09684
2023-10-03 01:39:00+00:00,346.8762,13.0,11.93,47.84626,-54.09684
2023-10-03 01:49:00+00:00,344.1362,13.0,11.93,47.84626,-54.09684
2023-10-03 01:59:00+00:00,343.1729,13.0,11.93,47.84626,-54.09684
2023-10-03 02:09:00+00:00,343.94300000000015,13.0,11.93,47.84626,-54.09684
2023-10-03 02:19:00+00:00,341.358,12.97,11.93,47.84626,-54.09684
2023-10-03 02:29:00+00:00,340.1562,12.97,11.93,47.84626,-54.09684
2023-10-03 02:39:00+00:00,343.2147,12.98,11.93,47.84626,-54.09684
2023-10-03 02:49:00+00:00,342.1712,13.0,11.93,47.84626,-54.09684
2023-10-03 02:59:00+00:00,338.3696,13.0,11.93,47.84626,-54.09684
2023-10-03 03:09:00+00:00,336.1446,13.0,11.93,47.84626,-54.09684
2023-10-03 03:19:00+00:00,334.4379,13.0,11.93,47.84626,-54.09684
2023-10-03 03:29:00+00:00,330.9396,13.0,11.93,47.84626,-54.09684
2023-10-03 03:39:00+00:00,327.0264,12.99,11.93,47.84626,-54.09684
2023-10-03 03:49:00+00:00,324.6763,12.98,11.93,47.84626,-54.09684
2023-10-03 03:59:00+00:00,316.9446,13.0,11.93,47.84626,-54.09684
2023-10-03 04:09:00+00:00,312.093,13.0,11.93,47.84626,-54.09684
2023-10-03 04:19:00+00:00,308.9163,13.0,11.93,47.84626,-54.09684
2023-10-03 04:29:00+00:00,298.9813,13.0,11.93,47.84626,-54.09684
2023-10-03 04:39:00+00:00,286.173,13.0,11.93,47.84626,-54.09684
2023-10-03 04:49:00+00:00,279.2314,13.0,11.93,47.84626,-54.09684
2023-10-03 04:59:00+00:00,273.9014,13.0,11.93,47.84626,-54.09684
2023-10-03 05:09:00+00:00,261.5863,13.0,11.93,47.84626,-54.09684
2023-10-03 05:19:00+00:00,250.0881,13.0,11.93,47.84626,-54.09684
2023-10-03 05:29:00+00:00,243.6747,13.0,11.93,47.84626,-54.09684
2023-10-03 05:39:00+00:00,237.9865,13.0,11.93,47.84626,-54.09684
2023-10-03 05:49:00+00:00,229.1947,13.0,11.93,47.84626,-54.09684
2023-10-03 05:59:00+00:00,219.3065,13.0,11.93,47.84626,-54.09684
2023-10-03 06:09:00+00:00,210.6931,13.0,11.93,47.84626,-54.09684
2023-10-03 06:19:00+00:00,205.8514,13.0,11.93,47.84626,-54.09684
2023-10-03 06:29:00+00:00,199.9464,13.0,11.93,47.84626,-54.09684
2023-10-03 06:39:00+00:00,193.3481,12.97,11.93,47.84626,-54.09684
2023-10-03 06:49:00+00:00,188.6931,12.97,11.93,47.84626,-54.09684
2023-10-03 06:59:00+00:00,186.3865,12.99,11.93,47.84626,-54.09684
2023-10-03 07:09:00+00:00,185.5714,13.0,11.93,47.84626,-54.09684
2023-10-03 07:19:00+00:00,183.5514,13.0,11.86,47.84626,-54.09684
2023-10-03 07:29:00+00:00,181.1664,13.0,11.86,47.84626,-54.09684
2023-10-03 07:39:00+00:00,181.8248,13.0,11.86,47.84626,-54.09684
2023-10-03 07:49:00+00:00,185.2464,13.0,11.86,47.84626,-54.09684
2023-10-03 07:59:00+00:00,186.0798,13.0,11.86,47.84626,-54.09684
2023-10-03 08:09:00+00:00,188.6798,13.0,11.86,47.84626,-54.09684
2023-10-03 08:19:00+00:00,196.6398,13.0,11.86,47.84626,-54.09684
2023-10-03 08:29:00+00:00,202.6181,13.0,11.86,47.84626,-54.09684
2023-10-03 08:39:00+00:00,204.2214,13.0,11.86,47.84626,-54.09684
2023-10-03 08:49:00+00:00,209.9048,13.0,11.86,47.84626,-54.09684
2023-10-03 08:59:00+00:00,218.2831,13.0,11.86,47.84626,-54.09684
2023-10-03 09:09:00+00:00,228.2097,13.0,11.86,47.84626,-54.09684
2023-10-03 09:19:00+00:00,232.8298,13.0,11.86,47.84626,-54.09684
2023-10-03 09:29:00+00:00,236.2681,13.01,11.86,47.84626,-54.09684
2023-10-03 09:39:00+00:00,242.0531,13.03,11.86,47.84626,-54.09684
2023-10-03 09:49:00+00:00,244.1614,13.04,11.86,47.84626,-54.09684
2023-10-03 09:59:00+00:00,243.2864,13.07,11.86,47.84626,-54.09684
2023-10-03 10:09:00+00:00,247.2664,13.08,11.86,47.84626,-54.09684
2023-10-03 10:19:00+00:00,253.2614,13.08,11.86,47.84626,-54.09684
2023-10-03 10:29:00+00:00,253.3531,13.09,11.86,47.84626,-54.09684
2023-10-03 10:39:00+00:00,252.6564,13.1,11.86,47.84626,-54.09684
2023-10-03 10:49:00+00:00,258.3881,13.09,11.86,47.84626,-54.09684
2023-10-03 10:59:00+00:00,264.8464,13.08,11.86,47.84626,-54.09684
2023-10-03 11:09:00+00:00,264.5031,13.06,11.86,47.84626,-54.09684
2023-10-03 11:19:00+00:00,265.9781,13.1,11.86,47.84626,-54.09684
2023-10-03 11:29:00+00:00,275.9614,13.1,11.86,47.84626,-54.09684
2023-10-03 11:39:00+00:00,285.413,13.1,11.86,47.84626,-54.09684
2023-10-03 11:49:00+00:00,290.8314,13.07,11.86,47.84626,-54.09684
2023-10-03 11:59:00+00:00,300.9647,13.0,11.86,47.84626,-54.09684
2023-10-03 12:09:00+00:00,312.6847,13.0,11.86,47.84626,-54.09684
2023-10-03 12:19:00+00:00,318.688,13.0,11.86,47.84626,-54.09684
2023-10-03 12:29:00+00:00,327.543,13.0,11.86,47.84626,-54.09684
2023-10-03 12:39:00+00:00,340.6146,13.0,11.86,47.84626,-54.09684
2023-10-03 12:49:00+00:00,351.2413,13.02,11.86,47.84626,-54.09684
2023-10-03 12:59:00+00:00,353.3847,13.09,11.86,47.84626,-54.09684
2023-10-03 13:09:00+00:00,357.2896,13.1,11.86,47.84626,-54.09684
2023-10-03 13:19:00+00:00,366.7029,13.1,11.86,47.84626,-54.09684
2023-10-03 13:29:00+00:00,373.1628,13.1,11.86,47.84626,-54.09684
2023-10-03 13:39:00+00:00,374.6395,13.1,11.86,47.84626,-54.09684
2023-10-03 13:49:00+00:00,374.8629,13.1,11.86,47.84626,-54.09684
2023-10-03 13:59:00+00:00,379.11300000000006,13.11,11.86,47.84626,-54.09684
2023-10-03 14:09:00+00:00,379.8863,13.13,11.86,47.84626,-54.09684
2023-10-03 14:19:00+00:00,381.8978,13.17,11.86,47.84626,-54.09684
2023-10-03 14:29:00+00:00,384.6912,13.18,11.86,47.84626,-54.09684
2023-10-03 14:39:00+00:00,381.073,13.19,11.86,47.84626,-54.09684
2023-10-03 14:49:00+00:00,376.5146,13.2,11.86,47.84626,-54.09684
2023-10-03 14:59:00+00:00,375.328,13.2,11.86,47.84626,-54.09684
2023-10-03 15:09:00+00:00,372.7747,13.2,11.86,47.84626,-54.09684
2023-10-03 15:19:00+00:00,370.4047,13.2,11.93,47.84626,-54.09684
2023-10-03 15:29:00+00:00,367.6962,13.2,11.93,47.84626,-54.09684
2023-10-03 15:39:00+00:00,368.4162,13.1,11.93,47.84626,-54.09684
2023-10-03 15:49:00+00:00,363.3479,13.09,11.93,47.84626,-54.09684
2023-10-03 15:59:00+00:00,362.6279,13.1,11.93,47.84626,-54.09684
2023-10-03 16:09:00+00:00,362.2279,13.1,11.93,47.84626,-54.09684
2023-10-03 16:19:00+00:00,353.2613,13.1,11.86,47.84626,-54.09684
2023-10-03 16:29:00+00:00,345.7814,13.09,11.86,47.84626,-54.09684
2023-10-03 16:39:00+00:00,344.9146,13.09,11.86,47.84626,-54.09684
2023-10-03 16:49:00+00:00,341.293,13.09,11.86,47.84626,-54.09684
2023-10-03 16:59:00+00:00,324.098,13.1,11.86,47.84626,-54.09684
2023-10-03 17:09:00+00:00,310.3563,13.1,11.86,47.84626,-54.09684
2023-10-03 17:19:00+00:00,310.4681,13.1,11.86,47.84626,-54.09684
2023-10-03 17:29:00+00:00,303.7747,13.11,11.86,47.84626,-54.09684
2023-10-03 17:39:00+00:00,287.4747,13.12,11.86,47.84626,-54.09684
2023-10-03 17:49:00+00:00,274.2031,13.17,11.86,47.84626,-54.09684
2023-10-03 17:59:00+00:00,269.8464,13.18,11.86,47.84626,-54.09684
2023-10-03 18:09:00+00:00,260.8781,13.17,11.86,47.84626,-54.09684
2023-10-03 18:19:01+00:00,247.4098,13.18,11.86,47.84626,-54.09684
2023-10-03 18:29:01+00:00,238.3931,13.19,11.86,47.84626,-54.09684
2023-10-03 18:39:01+00:00,233.308,13.19,11.86,47.84626,-54.09684
2023-10-03 18:49:01+00:00,220.6448,13.19,11.86,47.84626,-54.09684
2023-10-03 18:59:01+00:00,207.8481,13.19,11.86,47.84626,-54.09684
2023-10-03 19:09:01+00:00,206.7064,13.18,11.86,47.84626,-54.09684
2023-10-03 19:19:00+00:00,204.3181,13.17,11.86,47.84626,-54.09684
2023-10-03 19:29:00+00:00,194.5831,13.18,11.86,47.84626,-54.09684
2023-10-03 19:39:00+00:00,190.7464,13.18,11.86,47.84626,-54.09684
2023-10-03 19:49:00+00:00,193.138,13.18,11.86,47.84626,-54.09684
2023-10-03 19:59:00+00:00,192.7698,13.19,11.86,47.84626,-54.09684
2023-10-03 20:09:00+00:00,190.1781,13.2,11.86,47.84626,-54.09684
2023-10-03 20:19:00+00:00,191.7598,13.2,11.86,47.84626,-54.09684
2023-10-03 20:29:00+00:00,193.9799,13.2,11.86,47.84626,-54.09684
2023-10-03 20:39:00+00:00,194.4049,13.2,11.86,47.84626,-54.09684
2023-10-03 20:49:00+00:00,198.9297,13.2,11.86,47.84626,-54.09684
2023-10-03 20:59:00+00:00,204.3664,13.2,11.86,47.84626,-54.09684
2023-10-03 21:09:00+00:00,205.7531,13.2,11.86,47.84626,-54.09684
2023-10-03 21:19:00+00:00,209.5315,13.21,11.86,47.84626,-54.09684
2023-10-03 21:29:00+00:00,220.4914,13.2,11.86,47.84626,-54.09684
2023-10-03 21:39:00+00:00,226.5747,13.2,11.86,47.84626,-54.09684
2023-10-03 21:49:00+00:00,225.0814,13.2,11.86,47.84626,-54.09684
2023-10-03 21:59:00+00:00,229.0931,13.25,11.86,47.84626,-54.09684
2023-10-03 22:09:00+00:00,238.3198,13.25,11.86,47.84626,-54.09684
2023-10-03 22:19:01+00:00,241.3564,13.26,11.86,47.84626,-54.09684
2023-10-03 22:29:01+00:00,242.1931,13.27,11.86,47.84626,-54.09684
2023-10-03 22:39:01+00:00,245.9415,13.27,11.86,47.84626,-54.09684
2023-10-03 22:49:01+00:00,250.1014,13.29,11.86,47.84626,-54.09684
2023-10-03 22:59:01+00:00,250.8097,13.29,11.86,47.84626,-54.09684
2023-10-03 23:09:01+00:00,251.6564,13.29,11.86,47.84626,-54.09684
2023-10-03 23:19:01+00:00,256.8348,13.29,11.86,47.84626,-54.09684
2023-10-03 23:29:01+00:00,261.3247,13.27,11.86,47.84626,-54.09684
2023-10-03 23:39:01+00:00,265.4764,13.25,11.86,47.84626,-54.09684
2023-10-03 23:49:01+00:00,271.2548,13.26,11.86,47.84626,-54.09684
2023-10-03 23:59:01+00:00,276.688,13.2,11.86,47.84626,-54.09684
